This is the latest recevied weather packets stored in our database for station/object K8WEH. If no packets are shown the sender has not sent any weather packets the latest 10 day(s).
| Time | Temp. | Humidity | Pressure | Rain* | Wind** | Luminosity | Snow |
|---|---|---|---|---|---|---|---|
| 1777515932 | 12.22° C | 74% | 1014 hPa | 0 mm | - | - | - |
| 1777515632 | 11.67° C | 76% | 1013.9 hPa | 0 mm | - | - | - |
| 1777515332 | 11.67° C | 76% | 1013.9 hPa | 0 mm | - | - | - |
| 1777515033 | 11.67° C | 75% | 1013.6 hPa | 0 mm | - | - | - |
| 1777514732 | 11.67° C | 74% | 1013.5 hPa | 0 mm | - | - | - |
| 1777514432 | 11.67° C | 75% | 1013.6 hPa | 0 mm | - | - | - |
| 1777514132 | 11.67° C | 74% | 1013.5 hPa | 0 mm | - | - | - |
| 1777513831 | 11.67° C | 73% | 1013.5 hPa | 0 mm | - | - | - |
| 1777513530 | 11.67° C | 71% | 1013.5 hPa | 0 mm | - | - | - |
| 1777513230 | 11.67° C | 68% | 1013.4 hPa | 0 mm | - | - | - |
| 1777512930 | 12.22° C | 69% | 1013.4 hPa | 0 mm | - | - | - |
| 1777512629 | 12.22° C | 69% | 1013.2 hPa | 0 mm | - | - | - |
| 1777512328 | 12.22° C | 71% | 1013.2 hPa | 0 mm | - | - | - |
| 1777512028 | 12.22° C | 70% | 1013.2 hPa | 0 mm | - | - | - |
| 1777511731 | 12.78° C | 73% | 1013.1 hPa | 0 mm | - | - | - |
| 1777511426 | 12.78° C | 74% | 1012.9 hPa | 0 mm | - | - | - |
| 1777511123 | 12.78° C | 74% | 1012.9 hPa | 0 mm | - | - | - |
| 1777510822 | 13.33° C | 75% | 1012.8 hPa | 0 mm | - | - | - |
| 1777510521 | 13.33° C | 75% | 1012.7 hPa | 0 mm | - | - | - |
| 1777510221 | 13.89° C | 75% | 1012.6 hPa | 0 mm | - | - | - |
| 1777509920 | 13.89° C | 76% | 1012.7 hPa | 0 mm | - | - | - |
| 1777509620 | 13.89° C | 75% | 1012.7 hPa | 0 mm | - | - | - |
| 1777509319 | 13.89° C | 75% | 1012.5 hPa | 0 mm | - | - | - |
| 1777509027 | 14.44° C | 75% | 1012.3 hPa | 0 mm | - | - | - |
| 1777508719 | 14.44° C | 75% | 1012.2 hPa | 0 mm | - | - | - |
* Rain latest hour (hover to see other rain measurements)
** Current wind speed in m/s (hover to see current wind gust speed)